TimeEST,TemperatureF,Dew PointF,Humidity,Sea Level PressureIn,VisibilityMPH,Wind Direction,Wind SpeedMPH,Gust SpeedMPH,PrecipitationIn,Events,Conditions,WindDirDegrees,DateUTC
12:00 AM,41.0,39.2,93,30.21,3.0,South,5.8,-,N/A,,Overcast,180,2012-11-20 05:00:00
12:18 AM,39.2,39.2,100,30.21,2.5,South,6.9,-,N/A,,Mostly Cloudy,180,2012-11-20 05:18:00
12:30 AM,41.0,39.2,93,30.20,3.0,SSE,5.8,-,N/A,,Mostly Cloudy,160,2012-11-20 05:30:00
1:00 AM,22,19,85,30.21,,Calm,Calm,,,,,,2012-11-20 06:00:00
1:00 AM,41.0,39.2,93,30.20,3.0,South,5.8,-,N/A,,Overcast,170,2012-11-20 06:00:00
1:35 AM,39.2,39.2,100,30.19,2.2,South,5.8,-,N/A,,Mostly Cloudy,180,2012-11-20 06:35:00
2:00 AM,39.2,39.2,100,30.19,2.0,South,3.5,-,N/A,,Partly Cloudy,180,2012-11-20 07:00:00
2:11 AM,39.2,39.2,100,30.19,1.8,South,3.5,-,N/A,,Scattered Clouds,190,2012-11-20 07:11:00
2:43 AM,35.6,35.6,100,30.19,0.4,SSE,2.3,-,N/A,Fog,Fog,150,2012-11-20 07:43:00
3:00 AM,37.4,37.4,100,30.18,0.2,SSE,2.3,-,N/A,Fog,Fog,150,2012-11-20 08:00:00
3:21 AM,37.4,37.4,100,30.18,0.5,SSE,4.6,-,N/A,Fog,Fog,160,2012-11-20 08:21:00
4:00 AM,37.4,37.4,100,30.17,1.0,Calm,Calm,-,N/A,,Overcast,0,2012-11-20 09:00:00
4:24 AM,35.6,35.6,100,30.17,1.0,SE,3.5,-,N/A,,Overcast,140,2012-11-20 09:24:00
4:41 AM,37.4,37.4,100,30.17,1.2,SSE,3.5,-,N/A,,Overcast,160,2012-11-20 09:41:00
5:00 AM,39.2,39.2,100,30.17,1.2,SSE,6.9,-,N/A,,Overcast,160,2012-11-20 10:00:00
6:00 AM,41.0,41.0,100,30.17,1.5,South,3.5,-,N/A,,Overcast,180,2012-11-20 11:00:00
7:00 AM,24,22,91,30.22,,North,2.3,,,,,0,2012-11-20 12:00:00
7:00 AM,39.2,39.2,100,30.16,1.2,SE,6.9,-,N/A,,Overcast,140,2012-11-20 12:00:00
8:00 AM,41.0,41.0,100,30.16,1.8,SSE,6.9,-,N/A,,Overcast,160,2012-11-20 13:00:00
8:31 AM,41.0,41.0,100,30.16,2.0,SE,9.2,-,N/A,,Mostly Cloudy,140,2012-11-20 13:31:00
9:00 AM,42.8,42.8,100,30.16,2.5,South,4.6,-,N/A,,Scattered Clouds,180,2012-11-20 14:00:00
9:04 AM,42.8,42.8,100,30.16,3.0,SSE,5.8,-,N/A,,Scattered Clouds,160,2012-11-20 14:04:00
10:00 AM,44.6,44.6,100,30.16,4.0,South,5.8,-,N/A,,Overcast,170,2012-11-20 15:00:00
11:00 AM,48.2,44.6,87,30.15,5.0,South,9.2,-,N/A,,Mostly Cloudy,170,2012-11-20 16:00:00
11:24 AM,48.2,44.6,87,30.15,6.0,SSW,6.9,-,N/A,,Haze,200,2012-11-20 16:24:00
12:00 PM,50.0,44.6,82,30.14,7.0,SSE,5.8,-,N/A,,Mostly Cloudy,150,2012-11-20 17:00:00
1:00 PM,48,28,34,30.20,,SSE,1.2,,,,,160,2012-11-20 18:00:00
1:00 PM,53.6,41.0,62,30.12,9.0,South,6.9,-,N/A,,Clear,180,2012-11-20 18:00:00
2:00 PM,53.6,41.0,62,30.11,9.0,South,6.9,-,N/A,,Clear,180,2012-11-20 19:00:00
3:00 PM,53.6,41.0,62,30.09,9.0,SSE,5.8,-,N/A,,Overcast,160,2012-11-20 20:00:00
4:00 PM,53.6,41.0,62,30.11,9.0,South,4.6,-,N/A,,Overcast,180,2012-11-20 21:00:00
5:00 PM,51.8,41.0,67,30.12,9.0,SSE,3.5,-,N/A,,Overcast,160,2012-11-20 22:00:00
6:00 PM,50.0,41.0,71,30.14,9.0,SSE,3.5,-,N/A,,Overcast,160,2012-11-20 23:00:00
7:00 PM,31,29,89,30.28,,ESE,2.3,,,,,110,2012-11-21 00:00:00
7:00 PM,50.0,42.8,76,30.15,9.0,SSW,3.5,-,N/A,,Overcast,210,2012-11-21 00:00:00
8:00 PM,48.2,41.0,76,30.15,9.0,South,5.8,-,N/A,,Overcast,190,2012-11-21 01:00:00
9:00 PM,46.4,41.0,81,30.16,7.0,South,4.6,-,N/A,,Overcast,190,2012-11-21 02:00:00
10:00 PM,44.6,39.2,81,30.16,7.0,South,4.6,-,N/A,,Partly Cloudy,170,2012-11-21 03:00:00
10:44 PM,42.8,39.2,87,30.16,5.0,South,3.5,-,N/A,,Haze,180,2012-11-21 03:44:00
11:00 PM,41.0,39.2,93,30.16,4.0,SSE,4.6,-,N/A,,Clear,160,2012-11-21 04:00:00
11:47 PM,37.4,37.4,100,30.17,2.5,Calm,Calm,-,N/A,,Clear,0,2012-11-21 04:47:00
11:59 PM,37.4,37.4,100,30.17,1.8,Calm,Calm,-,N/A,,Clear,0,2012-11-21 04:59:00